星链-30176 (STARLINK-30176 )

导读

STARLINK-30176是美国太空探索技术公司星链计划的卫星,于2023年7月28日发射升空,归属美国所有,属于低轨卫星星座的组成部分,旨在为全球范围内用户提供高速互联网接入服务,进一步扩充星链星座的通信覆盖能力与网络容量,推动星链星座的部署进程。

基本信息
目录编号:
57477
目录名称:
STARLINK-30176
国际标识:
2023-107W
轨道中心:
EARTH
卫星名称:
星链-30176
卫星全名:
星链-30176 (STARLINK-30176 )
卫星状态:
在轨 (已飞行1141 天)
发射日期:
2023-07-28 UTC
国别 :
美国 (US)
星等 :
--
该卫星已列入 空间交会检测服务 Space Conjunction Data Service (SCDS) ,当前飞行风险评估等级: 高风险
轨道信息
数据来源 国际轨道数据
星历时间: 2026-09-09T09:22:37+0800
2天前
查看轨道信息
半长轴: 6861.107km
偏心率: 0.0001076
轨道倾角: 43.004°
近地点辐角 261.433°
升交点赤经 20.292°
平近点角 98.640°
近地点: 482.231km
远地点: 483.709km
周期: 94.265分钟
每日圈数: 15.276067
详细信息
固有亮度:
5
最大亮度:
0.3
卫星平台:
Starlink v2.0 mini
覆盖范围:
全球
运营商:
太空探索技术公司
运营商所在国:
美国
制造商(研发单位):
太空探索技术公司
制造商所在国:
美国
使用方式:
暂无
卫星简介
星链(Starlink)计划是由太空探索技术公司(SpaceX)提出的一个巨型低轨卫星互联网星座项目,计划在2019年至2024年间在太空搭建由约1.2万颗卫星组成的“星链”网络,其中1584颗将部署在地球上空550千米处的近地轨道,并从2020年开始工作。该卫星仍在工作。
2D轨道图
3D轨道图
轨道高度分析图
轨道倾角分析图
轨道综合分析图
查看轨道综合分析图
与全量物体交会距离演化趋势
与全量物体交会风险概率演化趋势